This is the latest recevied weather packets stored in our database for station/object VE6EN. If no packets are shown the sender has not sent any weather packets the latest 10 day(s).
| Time | Temp. | Humidity | Pressure | Rain* | Wind** | Luminosity | Snow |
|---|---|---|---|---|---|---|---|
| 1787797806 | 23.33° C | 42% | 1015.2 hPa | 0 mm | - | - | - |
| 1787797206 | 23.33° C | 40% | 1015 hPa | 0 mm | - | - | - |
| 1787796603 | 23.89° C | 40% | 1015 hPa | 0 mm | - | - | - |
| 1787796005 | 24.44° C | 38% | 1014.9 hPa | 0 mm | - | - | - |
| 1787795404 | 25° C | 38% | 1014.9 hPa | 0 mm | - | - | - |
| 1787794990 | 25° C | 37% | 1014.9 hPa | 0 mm | - | - | - |
| 1787793612 | 26.11° C | 34% | 1014.9 hPa | 0 mm | - | - | - |
| 1787793019 | 26.67° C | 33% | 1015 hPa | 0 mm | - | - | - |
| 1787791204 | 27.78° C | 30% | 1015.3 hPa | 0 mm | - | - | - |
| 1787790604 | 27.78° C | 31% | 1015.4 hPa | 0 mm | - | - | - |
| 1787790003 | 27.78° C | 31% | 1015.5 hPa | 0 mm | - | - | - |
| 1787789404 | 27.78° C | 30% | 1015.6 hPa | 0 mm | - | - | - |
| 1787788805 | 27.78° C | 29% | 1015.6 hPa | 0 mm | - | - | - |
| 1787788207 | 27.78° C | 30% | 1015.7 hPa | 0 mm | - | - | - |
| 1787787603 | 27.78° C | 30% | 1015.7 hPa | 0 mm | - | - | - |
| 1787787021 | 27.78° C | 28% | 1015.8 hPa | 0 mm | - | - | - |
| 1787786409 | 27.78° C | 29% | 1015.8 hPa | 0 mm | - | - | - |
| 1787785200 | 27.78° C | 30% | 1016.1 hPa | 0 mm | - | - | - |
| 1787784604 | 27.78° C | 29% | 1016.2 hPa | 0 mm | - | - | - |
| 1787784004 | 27.78° C | 30% | 1016.3 hPa | 0 mm | - | - | - |
| 1787783472 | 27.78° C | 31% | 1016.4 hPa | 0 mm | - | - | - |
| 1787781019 | 27.78° C | 30% | 1016.7 hPa | 0 mm | - | - | - |
| 1787778608 | 27.22° C | 31% | 1017 hPa | 0 mm | - | - | - |
| 1787778006 | 26.67° C | 32% | 1017.2 hPa | 0 mm | - | - | - |
| 1787777892 | 26.67° C | 31% | 1017.2 hPa | 0 mm | - | - | - |
* Rain latest hour (hover to see other rain measurements)
** Current wind speed in m/s (hover to see current wind gust speed)